RH
28 20 21 21 19 19 20 23 30 31 33 37 32 33 39 34 36 50 44 32 35 40 39 38 33 33 34 33 36 38 37 40 39 39 45 43 38 38 37 36 37 37 36 38 40 43 47 49 50 50 45 41 40 41 45 55 63 67 70 72 73 73 73 74 75 74 74 72 69 71 72 70 68 67 64 63 66 69 66 61 57 55 57 56 53 53 56
33 26 27 27 22 24 24 23 27 27 28 35 36 38 41 35 37 48 46 42 45 44 42 41 37 34 34 35 38 38 38 42 43 42 41 40 40 42 42 40 40 39 38 37 40 44 46 48 51 53 53 50 44 39 37 43 48 51 55 59 62 65 64 62 58 54 51 50 50 52 51 49 47 47 49 51 52 52 50 48 45 44 45 48 46 45 46
48 32 29 29 24 26 27 26 31 35 37 40 40 44 49 46 45 50 54 58 55 44 39 41 38 35 35 39 41 41 41 41 41 43 44 42 40 41 42 44 44 44 42 40 41 43 44 48 50 51 54 54 50 44 44 48 51 51 51 49 48 48 47 44 41 41 40 39 40 40 39 40 39 38 38 36 35 38 38 39 48 56 54 48 45 46 51
60 37 29 33 30 32 38 40 44 46 45 44 43 47 51 48 46 54 61 61 53 45 42 42 41 39 40 43 43 40 40 39 40 46 49 46 42 41 43 46 48 48 45 42 41 42 43 47 49 50 53 54 51 47 44 46 48 49 49 47 43 41 39 36 35 38 39 37 37 41 43 42 36 35 37 33 28 30 32 33 39 46 49 48 48 51 57
57 38 36 41 40 46 52 52 54 52 47 47 48 50 52 48 48 56 57 50 46 45 45 46 48 47 43 40 40 39 38 38 40 46 49 48 46 45 46 48 49 49 49 46 43 42 43 44 45 46 48 50 51 48 43 39 38 37 37 37 35 33 31 30 35 41 41 37 35 38 44 45 40 41 51 54 46 39 42 50 48 40 39 41 39 40 43
53 44 45 50 54 61 62 56 59 59 54 53 53 53 53 53 52 52 48 45 47 48 47 48 49 47 42 38 38 39 38 37 39 44 47 48 50 52 53 54 52 50 49 48 46 44 43 43 42 42 45 50 52 49 45 41 38 38 38 37 35 32 28 29 35 41 43 44 42 38 37 36 33 32 40 55 65 63 63 71 73 66 65 63 52 47 48
55 50 52 59 61 61 59 56 57 60 59 58 58 57 55 52 51 50 48 47 47 46 45 45 43 40 39 40 40 39 38 36 37 45 50 50 52 55 56 56 56 53 51 49 47 45 44 43 41 39 41 45 46 45 46 45 44 45 46 46 44 42 39 38 39 41 43 45 45 37 29 26 24 22 23 33 50 62 66 70 71 70 76 79 72 66 64
60 53 56 66 56 46 57 64 56 55 61 64 67 69 63 56 52 51 51 48 46 44 43 41 39 35 36 42 43 41 41 38 37 44 51 52 52 55 57 57 56 54 54 53 51 50 48 45 42 41 43 44 43 43 45 48 48 44 43 46 46 45 45 44 44 47 50 50 47 38 30 26 23 20 19 19 24 32 41 51 58 59 63 72 77 78 78
65 57 59 67 52 45 66 74 58 54 59 60 65 70 67 59 51 47 49 49 47 46 43 40 38 35 39 49 49 42 42 42 40 42 45 46 48 52 57 59 58 57 57 54 52 53 51 47 45 45 46 47 45 45 45 46 47 43 41 43 42 41 43 42 40 47 53 54 52 46 37 34 28 21 18 17 16 16 20 32 46 54 59 65 71 74 77
64 61 63 65 55 58 78 75 55 48 48 46 51 62 66 61 50 43 46 49 48 47 44 40 38 39 50 62 57 45 43 44 43 43 43 42 42 43 48 52 50 49 50 49 51 54 52 50 49 47 45 45 45 46 46 45 46 45 43 43 40 39 41 39 37 45 51 50 50 49 46 42 36 27 23 20 17 15 15 21 34 52 65 71 71 71 73
57 60 65 64 62 73 83 72 49 39 39 39 48 63 70 62 47 40 42 45 45 44 42 39 42 53 67 69 55 44 43 45 44 44 44 44 42 40 42 44 41 40 41 41 45 51 52 51 49 45 43 42 43 46 47 47 47 46 44 45 43 41 41 39 38 41 45 46 47 50 49 44 36 31 30 28 21 17 16 17 27 48 67 73 73 73 72
55 59 62 63 73 80 74 63 50 37 30 37 56 76 75 56 42 38 38 39 39 37 36 37 45 59 66 61 49 42 42 44 44 44 43 43 43 42 42 42 41 41 40 39 40 43 45 47 45 43 42 42 42 43 45 46 46 45 45 45 45 44 43 43 41 39 39 41 43 44 43 39 36 35 35 33 29 23 18 17 29 53 70 71 71 72 72
57 61 62 66 82 85 69 58 48 32 32 49 69 77 65 46 38 35 31 32 33 31 32 36 42 46 45 42 41 41 41 42 42 43 43 43 43 43 42 41 41 41 40 40 40 40 40 41 41 40 41 40 41 42 43 44 45 45 45 44 43 44 45 45 45 43 40 39 39 40 42 43 45 43 37 33 33 31 24 18 30 55 69 68 68 71 71
59 63 64 69 83 80 62 51 37 30 52 78 75 58 43 34 34 32 28 29 30 29 31 34 35 36 35 36 38 38 39 41 40 40 42 42 42 42 42 42 42 41 41 41 41 40 40 40 40 40 39 37 38 38 39 41 43 44 46 46 46 46 47 48 48 47 44 42 39 38 40 44 50 50 43 38 36 34 30 26 34 53 65 65 68 71 72
62 65 66 72 79 66 47 46 42 38 53 64 50 36 33 33 35 36 35 36 35 35 35 33 33 33 32 33 34 34 35 36 36 37 39 39 40 40 40 40 39 39 40 40 40 41 40 40 40 40 39 38 37 37 37 38 39 40 41 44 47 48 48 49 49 48 46 45 44 43 41 42 47 50 49 47 43 39 38 40 46 57 65 66 68 71 73
66 71 71 74 69 47 32 38 41 36 37 38 37 40 42 41 42 43 42 42 41 41 41 39 38 37 34 33 32 32 32 32 32 33 33 34 37 37 37 37 36 35 36 37 38 40 40 40 40 39 39 39 38 37 37 37 37 37 37 39 43 46 48 49 50 50 49 47 47 46 44 42 43 45 46 47 47 46 50 57 62 67 70 72 72 73 76
49 51 53 56 50 35 26 27 28 31 37 40 43 46 46 47 48 47 46 46 44 44 45 44 42 41 39 39 37 36 36 36 36 36 34 34 35 35 34 34 33 32 33 32 33 35 36 37 39 39 39 39 37 37 37 37 38 40 40 41 43 46 48 50 51 51 50 50 50 49 48 47 46 45 46 48 50 54 62 71 76 78 80 81 80 79 81
44 37 35 39 39 32 29 29 31 38 44 45 46 49 49 50 51 49 49 49 47 48 49 48 48 49 48 48 46 44 43 43 42 43 43 41 41 40 38 36 34 34 33 32 31 31 30 32 34 35 37 37 36 36 36 36 37 38 39 40 42 43 45 46 47 47 48 50 52 51 51 52 53 52 52 53 55 59 66 73 79 84 88 88 87 87 90
55 52 45 45 43 37 34 38 41 43 46 48 50 51 51 50 50 51 52 53 53 55 55 55 56 57 57 57 56 53 51 51 49 48 48 46 46 47 46 44 41 39 38 37 37 35 34 33 34 36 39 40 40 40 41 42 42 41 41 42 43 44 44 43 43 44 46 48 50 49 49 50 53 55 58 60 63 65 70 75 81 85 86 83 81 87 92
46 48 48 47 43 37 36 42 47 47 49 51 50 51 54 55 55 57 58 59 61 62 63 63 64 63 63 63 63 62 61 60 59 59 59 58 56 55 55 53 49 46 45 45 45 44 43 42 41 42 42 42 42 43 43 45 46 47 47 47 47 48 48 47 47 47 48 49 48 49 52 54 53 53 54 59 65 70 73 77 78 78 78 77 78 84 86
45 48 52 51 51 50 46 46 50 51 51 52 52 54 57 59 62 65 64 64 65 66 66 68 70 71 70 67 66 66 66 67 68 69 70 68 65 63 61 59 57 56 55 55 53 50 49 47 46 44 43 41 42 43 42 43 44 46 48 49 50 50 49 48 47 47 47 46 44 44 50 55 56 54 52 55 62 68 72 75 73 71 74 79 83 86 84
64 60 57 56 64 68 58 50 52 54 54 56 57 59 62 65 71 75 73 71 69 69 72 76 78 79 79 78 77 77 75 76 78 78 77 76 74 71 69 68 68 66 64 63 62 61 59 57 54 51 47 45 43 42 42 43 44 45 46 47 48 48 47 47 47 45 44 44 43 43 46 49 53 56 55 56 60 65 70 73 73 73 74 78 85 89 88
66 57 53 52 58 63 57 51 53 56 58 62 63 64 67 72 76 79 79 78 78 78 81 82 83 85 86 87 88 87 86 85 85 85 84 84 82 80 78 77 76 74 69 66 65 65 65 64 63 61 57 53 50 49 49 50 50 48 46 45 44 43 43 45 48 48 47 45 44 46 48 52 55 58 58 60 65 69 72 75 79 81 78 78 87 94 93
55 52 52 52 53 54 54 54 57 60 65 68 68 67 71 76 79 79 79 79 81 82 84 83 84 86 88 88 89 89 89 89 88 88 88 87 86 86 84 81 81 79 75 73 73 71 69 68 68 68 65 61 59 60 59 57 55 53 51 50 49 48 46 47 50 53 53 51 48 49 52 56 61 62 62 64 69 75 78 78 80 82 80 82 92 98 98
52 52 52 53 54 56 57 58 62 69 74 76 76 76 77 79 79 78 78 81 84 85 86 86 87 86 86 87 89 91 91 90 88 88 87 86 86 87 86 85 84 83 82 82 81 79 77 76 75 74 72 68 64 63 62 62 62 63 63 63 63 60 57 55 55 56 57 57 54 53 53 57 60 64 66 69 71 76 81 82 82 82 85 91 99 100 96
51 53 55 58 60 62 66 69 73 78 81 81 81 81 80 79 80 80 83 87 89 88 89 90 90 90 91 93 95 95 95 92 89 87 86 87 88 89 90 90 89 87 86 86 84 83 83 83 81 79 77 73 69 67 67 69 71 73 72 70 70 68 65 63 62 62 63 63 60 58 58 59 60 63 69 73 75 78 83 85 88 91 94 96 94 89 84
54 58 62 65 66 68 73 79 82 83 83 83 82 81 81 81 83 84 87 91 93 93 94 96 96 97 99 98 99 100 99 98 97 96 95 96 97 97 97 96 94 91 89 87 85 85 85 84 84 83 80 77 74 72 71 72 74 75 74 73 73 73 71 70 69 68 68 67 66 64 64 64 66 69 74 81 86 88 87 87 90 94 93 87 82 79 78
58 62 64 67 70 72 75 82 85 83 83 83 83 83 84 85 85 88 93 96 98 97 96 96 96 96 96 97 99 100 100 99 100 101 100 100 100 100 99 100 98 95 93 90 88 89 90 89 88 84 79 76 77 79 80 80 80 80 78 76 75 75 74 74 74 74 73 71 70 70 69 71 74 78 83 89 93 92 91 92 92 89 85 82 80 79 77
61 63 66 69 72 75 78 82 84 83 83 85 86 86 87 87 89 93 97 98 97 95 95 95 95 95 97 99 100 100 100 100 100 100 100 100 100 100 100 100 99 98 98 98 97 97 98 97 93 87 80 76 77 80 82 81 81 81 80 79 79 79 79 79 79 79 78 77 78 78 78 80 85 89 92 94 96 95 95 94 89 84 83 83 79 72 67
64 66 70 73 75 77 78 80 82 84 86 87 87 89 90 91 94 98 99 97 96 95 94 94 95 97 99 100 99 100 101 100 100 100 100 100 100 100 100 100 100 100 100 100 100 100 100 98 97 95 93 90 89 89 89 88 87 86 86 87 86 84 83 85 87 86 84 83 84 85 86 89 94 97 97 98 99 98 95 92 88 85 84 81 73 65 61
70 72 74 77 77 77 79 80 82 86 87 87 89 94 95 95 98 101 98 94 94 96 94 93 96 99 100 100 100 100 100 100 100 100 100 100 100 100 100 100 100 100 100 100 100 100 100 100 100 100 99 98 96 95 95 95 95 94 95 97 95 90 85 86 90 90 88 88 88 87 88 93 98 100 100 100 100 96 92 88 86 83 78 72 68 65 65
77 78 78 80 78 77 81 83 82 85 87 86 91 99 99 95 95 97 93 90 93 96 94 92 96 100 100 100 100 100 100 100 101 100 100 100 100 100 100 101 100 100 100 100 100 100 100 100 100 100 99 96 93 91 93 96 97 98 99 100 99 96 93 92 91 90 89 91 92 91 92 96 100 100 100 99 95 91 86 81 77 73 70 68 68 68 69
83 85 85 84 79 79 82 81 80 85 87 84 88 94 90 81 81 86 85 85 90 94 93 92 95 99 100 100 100 100 99 97 97 97 98 98 99 100 100 100 100 100 100 100 100 100 100 100 100 100 100 98 95 94 96 99 100 100 100 99 99 99 99 98 95 93 93 96 98 98 98 99 100 100 98 94 89 84 80 74 70 69 69 70 72 73 72
85 87 88 86 80 79 81 80 80 86 85 78 81 85 75 63 67 78 81 81 85 89 91 93 94 97 100 100 98 98 97 96 96 98 99 98 99 100 100 100 100 100 99 98 98 99 99 100 100 100 100 100 99 98 99 100 100 100 100 99 99 100 100 100 98 97 97 99 100 100 100 99 99 97 93 87 81 78 74 71 69 68 67 68 72 74 73
85 85 86 83 79 79 82 82 84 87 82 74 75 77 67 53 53 66 76 80 82 84 88 91 93 96 100 100 96 94 97 99 99 100 100 99 99 100 100 99 99 98 96 96 97 99 100 100 100 100 100 100 100 100 100 100 100 100 100 100 99 100 100 100 100 100 100 100 100 99 97 95 92 88 82 77 73 71 71 71 71 68 66 67 71 73 73
86 85 83 80 78 81 84 83 82 81 78 72 67 67 63 53 48 57 71 80 81 80 82 86 90 93 98 101 98 94 95 98 100 100 100 99 100 101 99 98 97 97 97 97 98 100 101 99 98 98 99 99 100 100 100 100 100 99 99 100 100 100 100 100 99 99 99 98 97 95 90 85 81 77 73 71 70 71 73 75 74 72 71 72 73 74 75
85 83 79 79 82 84 82 78 73 69 68 66 61 59 60 56 52 57 69 78 80 77 75 79 85 90 95 100 99 96 94 96 98 100 101 100 100 97 93 92 92 94 96 98 99 100 101 99 96 94 93 93 94 94 95 96 97 97 97 98 98 97 97 97 96 96 94 91 88 85 80 77 77 76 75 75 75 75 77 77 76 76 76 76 75 74 74
81 81 80 81 83 82 77 71 64 59 58 58 57 57 58 56 56 60 67 74 77 74 69 71 79 85 89 93 94 93 94 96 97 99 99 99 99 95 92 92 94 94 96 99 101 100 99 99 96 95 93 91 88 86 85 86 86 85 85 87 87 88 89 88 87 86 84 80 78 77 76 77 79 80 80 80 79 79 79 79 77 76 75 75 76 76 74
78 79 79 77 76 75 70 64 58 55 56 56 55 56 57 54 53 55 61 67 72 70 65 66 70 74 80 87 89 88 88 90 95 99 98 94 94 96 97 99 100 99 98 100 101 100 99 97 93 93 94 93 89 84 81 80 79 78 77 76 76 77 78 79 80 80 80 78 79 81 83 85 85 83 83 83 82 80 80 79 76 74 74 77 80 78 75
78 78 77 75 72 68 64 59 54 52 54 55 55 56 55 51 47 46 49 57 66 66 62 61 62 60 62 74 85 86 81 75 79 89 95 93 90 90 91 93 97 100 100 101 100 99 98 95 92 92 92 91 90 89 85 82 80 81 82 81 81 81 81 81 82 83 84 85 87 88 88 88 87 84 83 82 80 79 77 76 74 74 76 79 82 81 79
77 76 75 75 71 63 58 57 53 49 50 54 56 55 53 50 49 45 40 45 56 60 56 58 60 53 45 50 65 73 68 57 53 61 73 80 82 83 83 84 86 89 93 98 99 97 94 92 92 94 93 89 87 88 88 86 85 86 86 87 86 86 86 86 86 86 87 88 89 89 88 87 84 81 77 75 73 73 74 74 75 78 80 81 80 76 68
75 75 73 73 69 60 54 53 51 49 50 52 53 55 54 50 49 45 35 33 43 51 50 52 58 54 42 33 34 39 41 39 37 39 45 53 60 66 70 73 71 68 69 75 81 85 89 91 92 94 94 90 84 81 80 81 82 82 82 83 83 82 82 81 81 82 84 85 86 85 83 79 75 72 70 69 69 72 75 77 78 79 78 74 69 62 52
77 75 72 72 69 60 54 52 49 49 49 47 47 52 53 45 39 36 29 23 27 35 41 45 51 53 47 36 25 21 23 26 29 31 33 36 40 45 50 54 54 49 46 47 48 54 66 78 87 91 91 87 81 75 71 71 73 73 73 74 74 74 74 74 74 76 77 77 76 76 73 70 68 67 68 69 72 75 78 78 77 73 68 61 52 44 39
80 77 75 75 68 59 56 54 47 42 43 43 43 46 46 37 29 26 22 16 15 21 31 42 48 52 51 44 34 24 19 18 20 24 26 26 28 32 35 37 38 36 34 35 34 33 39 53 69 80 84 84 81 76 70 66 66 66 66 67 68 68 69 72 74 75 74 72 72 72 71 70 71 72 73 75 77 76 71 67 62 57 53 49 41 34 30
82 79 78 77 68 58 57 55 47 42 43 45 46 47 42 32 25 21 18 13 10 11 19 31 42 50 53 49 39 27 18 13 13 17 18 20 26 30 29 26 27 27 26 27 29 29 30 34 41 50 59 66 73 75 74 72 70 67 64 65 67 69 71 74 76 76 76 76 76 76 76 76 77 77 76 73 69 62 54 48 43 40 38 35 32 31 32
79 80 83 81 69 59 58 57 50 45 43 44 49 52 43 27 21 23 22 18 14 10 7 13 24 36 45 44 35 23 13 8 7 9 10 14 22 27 24 19 20 22 21 21 22 24 27 28 28 29 32 36 41 48 55 63 69 72 72 73 75 76 77 79 80 81 82 81 80 79 79 77 74 70 63 55 47 41 36 32 30 29 29 30 32 36 40
75 79 84 80 67 59 59 56 46 39 37 39 48 53 41 24 20 27 31 31 31 25 16 10 10 15 22 25 22 16 11 8 7 7 6 7 11 15 14 12 12 14 15 18 19 20 21 22 22 24 25 26 25 26 29 35 43 51 60 68 75 80 83 85 83 82 82 81 80 77 74 67 59 52 44 37 32 30 28 26 25 28 33 39 43 46 49
70 74 79 75 62 56 58 57 46 36 34 39 47 48 36 24 24 31 36 39 42 38 30 22 17 12 9 9 9 8 8 8 7 6 6 6 8 9 9 9 9 9 9 12 15 18 19 19 18 19 20 21 22 23 24 24 26 28 33 40 51 62 71 77 80 80 78 76 73 69 63 56 49 43 38 35 35 35 34 34 38 43 50 56 57 56 59
66 69 75 75 66 60 61 60 50 37 35 41 47 44 33 27 31 37 38 40 43 40 34 30 27 20 12 8 6 6 6 6 6 5 5 5 6 7 7 8 10 10 9 8 9 11 13 14 15 16 16 17 17 19 20 21 22 23 24 26 31 37 45 52 59 63 64 63 62 61 60 58 53 49 48 51 53 52 51 54 57 60 62 64 63 64 71
65 67 71 73 68 63 63 63 55 42 36 41 47 43 33 31 36 39 36 36 38 38 34 31 29 24 18 12 8 6 6 5 4 5 5 4 4 4 5 5 6 8 8 7 7 8 8 9 9 9 11 12 13 15 17 18 19 20 21 23 26 30 35 41 47 53 58 62 64 64 66 68 69 69 69 70 72 73 74 75 75 73 71 70 71 75 82
63 65 67 68 65 61 59 60 55 44 36 38 42 40 34 33 39 41 36 33 35 35 33 30 29 27 23 17 10 7 7 6 5 4 4 4 4 3 3 3 4 5 5 5 6 6 6 7 7 7 7 8 9 10 12 14 17 19 20 21 22 26 31 37 44 52 61 71 77 80 82 84 87 86 81 77 78 83 86 84 80 78 79 82 85 89 93
60 62 63 63 62 58 56 55 53 45 38 37 39 38 32 31 35 37 35 33 34 35 33 31 29 28 26 20 13 8 6 7 6 5 4 4 4 3 3 3 3 3 3 4 4 5 5 5 5 6 7 7 7 8 8 9 11 14 17 18 20 25 34 44 54 62 68 74 82 89 94 96 94 91 86 84 86 89 90 87 83 84 90 95 97 97 97
Wind_Speed
5 5 6 7 7 7 7 6 6 7 7 7 5 4 5 2 2 5 5 2 3 3 3 3 2 4 7 12 17 14 10 11 17 20 16 13 13 14 14 13 13 14 15 14 12 13 14 13 11 9 9 8 9 10 11 11 13 14 15 15 15 14 13 13 14 14 13 12 11 13 13 11 11 10 11 12 13 14 14 13 14 16 18 18 18 18 20
4 5 6 8 7 7 7 6 7 7 6 5 4 3 4 3 1 4 1 4 4 4 5 5 8 13 17 20 24 24 19 11 4 11 16 16 16 16 14 14 16 15 14 13 12 13 14 14 13 11 9 8 7 9 12 13 12 10 10 11 12 12 12 11 11 10 9 9 10 10 10 10 9 9 9 10 10 10 11 11 11 12 13 14 14 13 13
5 5 6 8 8 7 7 7 7 6 5 6 5 3 5 5 3 4 6 8 6 5 6 6 14 20 21 20 21 23 23 23 19 12 7 3 9 17 17 17 18 17 16 15 13 12 12 12 11 10 10 9 8 9 13 15 15 14 12 11 10 11 11 10 9 9 8 9 10 10 10 10 9 8 8 8 9 9 9 9 10 10 11 11 12 13 14
3 4 5 7 7 7 7 6 7 6 5 5 4 4 5 4 3 6 9 6 2 5 7 10 14 17 17 15 16 19 21 23 25 23 23 22 12 5 16 18 18 17 17 17 16 15 14 13 11 10 10 10 9 9 12 14 15 15 14 13 12 12 11 9 8 8 8 9 9 9 8 8 7 5 5 5 6 6 7 7 7 7 8 9 10 13 14
2 3 5 6 7 7 5 4 7 7 4 4 5 5 8 8 5 5 5 3 2 6 10 11 10 10 11 12 15 16 17 19 23 25 23 23 23 9 16 25 21 18 18 18 17 15 12 11 10 9 10 11 9 7 9 10 10 10 11 10 10 9 8 9 11 11 10 9 10 10 9 9 7 6 7 6 5 5 6 7 7 7 8 9 9 11 12
2 1 4 6 5 3 3 2 6 8 7 7 7 7 10 10 7 4 4 5 6 8 11 10 9 9 11 18 23 23 21 20 21 23 21 19 24 21 14 19 16 16 19 20 18 15 12 12 12 8 8 12 10 5 5 5 5 5 6 5 6 6 6 10 13 13 11 11 10 10 9 8 7 8 9 10 9 8 8 9 9 9 9 11 11 11 13
2 2 6 5 2 3 2 5 9 8 8 8 8 11 13 12 9 8 9 9 8 10 12 13 15 16 16 25 30 28 26 25 22 22 21 18 20 23 20 16 14 15 17 16 15 12 11 12 11 5 3 7 8 4 4 6 5 4 4 4 3 4 4 5 7 7 10 11 10 8 7 5 5 5 6 8 9 10 11 12 12 12 12 13 13 13 14
2 2 3 2 3 2 5 8 8 7 7 7 7 9 12 12 10 8 8 8 10 13 17 20 20 18 16 22 28 27 24 25 26 23 22 18 15 14 15 14 13 14 13 10 9 7 6 7 7 4 4 4 6 5 6 7 7 6 6 5 4 4 4 4 4 4 7 8 7 5 3 2 2 3 2 2 3 5 7 9 10 11 13 13 13 13 13
3 4 2 2 2 6 6 5 6 6 5 4 3 5 6 9 11 10 7 7 10 13 18 22 23 19 14 15 21 24 22 22 24 23 21 18 15 12 8 6 6 6 5 5 6 4 1 2 4 3 4 4 4 6 7 6 5 6 6 6 6 7 8 7 7 8 9 9 7 6 4 2 1 2 3 2 2 2 4 6 8 9 10 12 14 14 13
2 4 1 1 1 2 2 3 7 10 9 6 1 4 3 6 13 15 11 7 9 11 15 20 21 18 11 6 11 20 21 20 23 23 20 16 15 14 11 8 10 9 6 5 5 3 1 0 3 5 2 1 1 4 6 6 6 6 5 7 8 8 9 8 8 9 12 11 9 7 7 5 5 5 5 4 4 5 5 6 8 9 10 12 14 15 15
3 4 2 1 2 2 2 4 7 13 16 13 5 4 2 6 12 17 13 9 11 13 14 17 16 11 6 2 9 19 20 19 20 22 21 18 14 12 11 11 12 11 8 6 4 4 5 4 5 6 6 5 5 5 5 7 8 8 7 8 8 7 7 8 9 9 9 9 9 9 9 9 10 10 8 7 7 7 6 7 8 10 11 13 15 16 17
2 3 2 1 1 1 1 4 9 14 15 11 6 2 1 7 13 15 14 12 14 14 13 13 9 5 3 4 11 18 19 18 19 19 19 19 16 15 15 15 15 12 8 7 6 5 4 5 7 6 7 8 9 8 8 9 11 12 12 12 10 8 8 9 10 10 8 7 9 11 12 13 12 12 11 11 11 10 10 9 9 11 13 15 16 17 18
2 3 2 1 1 0 3 8 13 15 10 6 4 1 3 8 12 13 13 13 15 14 13 10 6 5 7 10 13 17 18 19 20 19 18 18 19 19 17 16 16 15 13 12 11 8 6 6 7 7 8 9 8 9 9 11 13 14 15 15 14 14 13 13 13 12 12 10 10 10 11 11 12 13 14 15 15 15 15 12 11 14 15 16 18 18 19
2 2 2 1 0 1 4 9 13 12 5 1 1 3 5 9 12 13 14 13 13 15 15 13 11 12 13 14 15 17 18 21 23 22 21 20 20 21 21 19 18 18 16 15 14 12 11 11 12 12 12 12 12 11 11 12 13 14 15 16 16 16 15 15 15 15 15 15 14 14 13 12 13 15 16 18 19 19 19 15 13 16 18 19 20 21 21
2 2 2 3 1 3 5 5 7 8 3 0 3 5 7 12 15 17 18 17 17 19 18 17 17 17 16 16 17 18 18 20 22 24 24 24 23 23 23 22 22 22 21 20 19 17 16 16 16 16 16 16 16 16 16 16 16 15 16 17 17 17 17 17 17 17 17 17 16 16 15 15 15 16 18 20 21 21 20 16 15 18 20 21 23 23 23
2 3 3 1 4 2 4 4 3 5 7 12 16 15 14 18 20 20 19 19 20 20 20 20 20 21 20 19 19 20 21 21 22 23 24 26 26 25 24 25 25 24 25 25 24 22 21 20 20 19 18 18 19 19 19 19 19 19 19 20 20 20 20 20 19 18 18 18 18 18 18 18 18 19 21 21 22 22 19 16 17 20 22 23 23 24 24
2 2 1 2 3 5 13 11 9 14 18 20 20 18 17 17 18 17 18 19 19 20 20 21 21 22 22 22 22 22 23 24 24 23 23 24 25 26 26 26 26 25 26 27 27 27 26 24 23 21 21 22 24 24 23 22 21 19 19 20 21 21 21 21 22 22 22 22 21 20 20 20 20 21 22 22 22 22 19 18 18 20 21 21 22 23 23
3 2 8 12 11 15 19 17 16 20 22 19 19 19 18 17 17 17 18 18 19 19 19 20 21 22 23 23 24 24 25 27 27 27 26 26 26 27 27 27 26 25 25 27 27 28 28 28 27 26 25 26 27 26 25 24 24 23 22 22 23 23 23 23 23 24 24 23 23 21 19 18 18 19 20 21 22 22 21 20 20 19 18 19 20 22 21
2 1 8 14 13 14 18 20 20 22 21 20 21 20 18 18 18 18 17 17 18 18 18 19 21 23 24 25 27 27 28 29 30 31 31 32 31 30 30 29 28 26 26 26 27 25 24 25 25 23 21 20 19 19 18 17 18 20 21 21 20 21 23 24 25 26 23 21 22 23 21 20 19 18 17 18 19 20 21 21 20 19 19 20 21 21 20
1 1 9 16 15 12 15 19 20 21 21 22 22 20 19 19 18 17 16 17 19 20 20 20 21 24 25 25 27 27 27 28 30 29 30 30 30 30 30 30 30 30 29 29 28 26 24 23 21 20 20 19 19 18 18 17 17 17 18 18 18 18 18 19 23 25 23 19 18 19 20 22 24 22 19 17 17 18 18 18 17 18 20 22 22 21 19
2 3 11 18 15 12 15 20 20 19 21 22 22 21 21 20 18 18 19 19 19 21 22 21 21 23 24 25 25 26 26 26 26 26 26 26 27 28 29 30 30 30 29 29 29 31 30 28 26 26 27 27 26 26 25 25 24 24 23 23 22 22 20 19 20 21 21 20 18 16 17 20 22 21 20 19 19 19 18 18 18 18 18 19 20 18 16
2 3 7 10 6 4 13 19 19 19 21 21 19 19 19 18 18 19 19 20 20 20 21 20 20 21 22 22 23 24 25 24 24 24 24 24 24 25 26 26 27 28 28 28 28 29 30 29 29 30 32 32 32 31 31 30 29 29 29 29 28 27 26 24 23 22 22 22 21 21 21 21 20 18 19 21 22 21 20 18 18 17 16 16 17 17 16
2 4 9 10 5 6 11 16 18 19 19 17 16 16 16 16 17 17 18 20 20 20 19 17 17 17 18 17 18 19 21 21 21 20 21 21 23 24 24 24 26 27 29 29 29 30 30 29 28 29 31 31 31 30 30 29 28 28 29 29 29 28 27 26 25 22 21 22 24 24 23 22 19 17 18 20 21 20 19 17 17 18 16 16 17 18 17
2 6 10 12 10 9 12 15 16 16 16 16 17 17 16 15 15 15 16 17 17 16 15 14 13 15 16 17 17 18 20 20 20 20 21 21 23 24 25 26 26 26 26 26 27 29 29 29 28 28 29 30 30 29 28 27 28 29 29 29 28 29 30 30 29 24 19 20 24 26 24 21 19 19 20 20 19 18 18 18 19 17 14 14 17 19 18
4 7 9 10 10 11 12 14 14 15 16 16 15 14 13 13 13 14 14 13 12 13 15 16 17 19 20 21 21 21 23 24 25 26 27 28 28 28 27 26 25 24 24 24 25 26 26 27 28 28 29 30 30 30 29 29 29 29 29 29 29 30 31 33 32 29 23 21 22 25 26 24 22 23 23 22 21 20 20 19 17 14 12 13 16 18 18
6 7 9 10 10 12 13 14 15 16 15 13 11 10 11 12 12 12 12 13 14 16 18 20 21 21 21 21 22 23 24 27 27 27 28 29 29 29 28 27 27 27 27 28 29 29 28 28 28 29 30 32 32 32 32 32 31 31 30 29 28 29 30 30 30 29 26 23 22 24 25 24 25 25 24 23 22 22 21 18 15 12 13 14 16 17 18
6 8 9 10 11 12 13 13 14 13 10 9 10 10 11 11 10 11 12 14 16 17 18 19 21 21 21 21 22 22 23 24 25 24 24 24 24 25 26 26 27 28 29 31 32 32 32 32 31 32 34 35 35 35 35 35 35 35 34 33 31 29 28 27 26 25 25 24 24 24 24 23 25 25 24 23 21 20 18 18 17 18 20 21 20 20 19
6 8 9 9 10 12 11 10 9 8 8 9 9 9 10 10 10 11 13 14 14 15 17 20 20 20 21 23 23 22 22 22 22 22 22 23 24 24 23 23 24 24 25 27 28 29 30 31 33 35 36 37 37 37 36 36 36 37 37 37 35 33 31 29 26 24 24 25 25 25 24 24 23 23 22 21 19 17 17 19 22 25 27 26 24 21 19
7 9 9 9 9 10 8 7 6 6 7 9 9 9 10 11 11 11 13 13 15 17 20 22 21 20 21 22 21 21 21 20 20 20 20 21 22 21 20 20 21 20 18 18 19 20 22 25 28 30 32 33 33 35 36 36 37 38 38 37 37 35 33 29 26 25 24 24 23 22 22 22 20 20 20 20 20 19 21 25 28 29 29 27 24 21 19
8 8 9 8 8 7 7 6 6 7 8 9 9 9 10 11 11 12 13 14 15 17 21 23 21 20 20 20 19 17 16 16 15 15 16 17 17 16 14 14 14 11 8 9 11 13 16 19 21 23 23 24 25 27 29 31 32 33 33 33 34 34 33 29 26 24 24 23 22 20 20 19 19 20 22 23 24 24 26 29 29 28 26 24 21 19 18
8 7 7 7 6 7 6 6 6 7 8 8 9 9 10 11 11 13 15 16 15 16 19 22 22 21 21 20 17 15 12 11 11 12 11 10 8 6 5 6 8 9 8 5 3 3 5 7 9 12 15 18 20 22 24 26 28 28 28 27 28 29 31 30 28 25 24 23 22 22 22 21 21 23 26 27 28 28 29 29 27 25 23 21 19 17 15
7 6 5 5 6 6 6 6 7 8 8 8 9 10 11 12 12 13 14 15 15 14 18 22 23 22 22 20 18 15 13 11 10 9 6 4 6 8 11 14 16 19 19 16 13 10 9 8 7 7 10 13 17 19 20 21 22 22 22 23 23 23 24 27 29 28 26 24 23 24 25 24 24 26 27 28 30 30 29 27 24 22 21 19 16 14 12
6 4 3 3 4 5 6 6 6 6 6 8 8 9 11 13 11 11 13 17 17 16 18 21 23 23 22 20 18 16 14 13 11 8 6 6 8 12 15 19 23 25 23 19 17 17 17 15 11 8 7 6 9 10 8 4 8 12 15 19 21 20 21 24 27 28 27 25 25 26 25 24 25 27 28 29 30 29 26 24 22 21 19 18 15 13 12
4 2 1 2 3 5 5 4 4 3 7 9 8 7 11 13 12 12 15 19 19 19 18 19 21 23 22 21 19 17 17 17 16 13 11 11 11 15 19 23 25 24 22 20 22 25 26 25 21 19 17 13 9 7 7 6 7 10 13 16 18 18 21 24 27 28 28 27 26 25 24 24 26 29 29 29 28 26 23 22 20 19 19 17 14 12 12
1 1 3 4 4 4 2 2 3 4 7 9 7 7 11 13 13 14 16 18 20 21 19 18 20 23 24 23 22 20 20 22 21 18 17 16 17 20 23 23 22 21 21 22 25 29 31 31 29 28 28 28 26 22 17 13 12 12 13 15 17 20 24 27 28 28 28 27 26 26 27 29 30 29 28 27 25 22 21 20 18 16 15 14 13 12 12
3 4 5 5 4 2 1 2 4 5 7 7 7 8 12 13 13 14 15 16 18 20 20 18 19 22 24 25 25 22 20 21 22 22 21 21 22 23 24 23 23 23 24 25 25 28 30 31 30 30 31 32 32 32 30 28 28 27 25 23 23 24 26 27 28 28 28 28 29 30 31 30 28 25 23 22 21 20 18 16 14 12 12 12 12 13 11
4 5 5 4 3 1 2 3 4 5 6 6 7 9 12 13 13 13 14 14 16 18 19 19 20 21 21 23 25 24 21 20 22 25 26 26 25 24 23 24 25 26 25 24 23 25 27 28 27 28 29 29 29 29 30 31 32 33 33 33 33 33 33 33 33 32 31 31 31 31 30 27 24 21 20 19 18 17 15 13 12 12 12 13 14 13 13
6 6 5 4 3 1 2 3 3 4 5 6 7 8 10 11 11 11 11 11 13 14 16 17 18 19 19 20 22 24 22 21 22 25 29 30 28 26 26 27 29 28 27 25 21 20 22 25 27 27 28 28 29 29 29 30 31 32 32 33 33 33 33 33 32 31 30 29 29 28 26 24 22 20 18 17 16 15 14 14 14 13 13 14 14 14 13
6 6 6 4 2 2 0 1 3 4 4 5 6 8 9 9 9 9 8 8 9 12 14 15 16 16 16 16 19 22 22 20 21 24 28 30 31 30 29 29 28 27 26 24 20 18 18 21 25 28 28 26 26 26 27 28 30 31 31 31 31 31 30 30 29 28 27 25 24 23 22 21 20 19 18 18 17 17 15 14 12 11 10 11 11 11 11
7 6 5 3 2 1 2 2 2 3 5 5 6 7 10 10 9 8 7 7 7 9 11 14 16 16 15 14 14 16 18 19 20 21 24 27 29 30 30 28 27 25 23 22 20 18 16 16 19 23 25 24 24 24 24 24 26 27 28 28 28 27 26 25 24 23 22 22 21 21 21 20 20 20 20 20 19 17 14 12 11 10 9 9 10 10 10
7 6 4 3 3 2 3 4 2 3 4 4 5 8 11 11 9 9 8 7 7 7 9 11 15 17 16 14 12 12 13 16 19 20 22 24 26 27 28 28 26 25 22 21 19 17 15 15 16 18 19 20 20 21 21 22 23 24 25 25 25 24 23 21 20 19 18 18 19 20 20 19 19 19 18 17 16 15 14 13 12 11 10 10 10 10 10
10 8 6 5 5 4 3 4 4 3 3 2 4 9 11 10 9 9 8 7 6 6 6 8 11 14 16 15 13 12 13 15 17 19 21 23 24 24 24 23 23 22 22 21 20 18 17 16 16 16 16 17 17 17 18 20 20 20 20 20 20 19 19 18 16 15 14 14 15 16 16 15 16 16 16 15 15 15 14 14 13 12 11 11 10 9 8
11 10 8 7 7 6 5 5 4 2 1 1 4 7 8 9 9 7 6 7 7 6 5 6 8 11 13 14 14 14 13 14 15 17 18 20 21 21 21 20 18 18 19 19 20 20 19 18 16 14 13 13 13 13 14 15 16 16 16 17 16 16 15 14 13 12 13 13 14 15 15 14 14 15 15 15 15 14 14 13 13 12 11 10 9 8 7
11 11 10 9 8 8 7 6 5 4 3 3 4 5 6 8 8 5 4 6 6 6 5 5 7 9 11 13 14 14 14 13 13 13 14 15 17 19 19 18 17 16 17 17 18 18 18 17 15 13 11 11 10 10 10 11 11 10 10 10 11 11 11 11 11 12 13 14 14 15 14 14 14 14 14 13 13 12 12 12 11 11 11 10 9 8 7
11 12 12 11 9 8 8 7 7 7 5 2 4 4 6 7 6 3 5 7 8 7 7 6 7 8 9 11 13 14 14 13 13 13 13 13 15 17 17 16 16 15 15 15 15 16 16 15 14 12 11 10 8 7 7 8 8 8 8 8 8 8 9 10 11 12 13 13 13 13 13 12 12 12 12 11 11 10 10 10 9 9 8 8 7 6 5
11 12 13 13 11 9 7 7 8 8 5 2 4 6 6 5 3 3 6 9 10 10 9 9 8 7 7 8 11 12 13 13 14 14 15 14 14 15 15 15 14 14 13 13 13 14 13 13 12 12 11 10 9 8 8 7 7 7 8 9 10 10 11 11 12 12 12 11 11 11 11 10 10 10 9 9 9 9 8 8 7 7 6 5 4 4 4
12 12 13 13 12 9 7 8 9 8 5 4 7 8 6 4 1 3 6 8 9 10 10 9 9 9 7 7 8 10 11 12 13 14 15 15 15 14 14 14 14 14 14 13 13 12 12 11 11 11 10 9 8 8 8 8 7 6 6 7 9 11 12 12 11 11 10 9 9 8 8 8 8 7 7 7 7 6 5 5 4 4 4 4 3 3 3
13 13 13 13 12 10 8 9 11 9 6 5 8 8 7 4 1 3 5 6 6 8 9 8 9 9 8 8 8 9 9 10 11 12 12 13 13 14 14 15 15 15 14 13 13 12 11 11 11 10 9 8 8 7 7 6 6 6 5 5 6 8 10 10 10 10 9 8 7 7 6 5 5 5 5 5 4 4 3 2 2 3 3 3 2 2 2
14 15 14 13 13 14 12 12 12 11 8 7 9 9 7 5 3 2 4 3 2 4 6 7 7 8 8 8 8 9 9 9 9 11 11 10 11 11 12 13 14 14 14 14 14 14 12 11 11 11 11 10 8 7 7 6 5 5 5 5 5 6 7 8 8 8 7 6 5 5 4 3 3 4 5 5 5 4 3 3 3 3 2 2 1 1 2
14 15 15 14 14 15 16 15 14 13 10 10 11 11 9 6 5 5 4 3 2 2 3 4 6 6 7 6 7 8 8 8 9 9 10 10 9 10 11 11 12 13 13 13 14 14 14 13 13 13 12 12 11 10 9 7 6 5 5 5 4 4 5 5 6 6 6 6 7 7 6 6 6 6 6 6 5 5 5 4 4 4 4 3 3 2 1
14 16 17 15 14 15 16 16 15 14 12 12 13 14 10 7 6 7 8 6 5 5 4 2 3 4 5 5 5 6 7 8 8 9 9 10 9 10 10 11 11 12 12 13 13 12 12 13 13 13 13 13 13 12 11 10 8 7 6 6 5 4 4 4 5 6 8 8 8 8 8 8 7 6 5 4 5 5 5 4 5 5 5 6 6 6 4
14 15 16 15 14 13 15 17 16 15 14 13 15 16 13 8 8 11 11 8 7 8 8 6 5 5 4 3 2 3 5 6 7 8 8 9 8 8 8 8 9 10 11 11 12 12 11 12 12 13 13 13 13 12 12 11 10 9 8 7 6 5 5 6 7 7 7 6 7 8 8 7 6 4 3 3 4 5 5 5 5 6 7 7 7 7 6
Wind_Direction
285 291 300 306 300 294 300 297 298 312 331 348 354 302 265 228 171 237 243 28 351 311 50 51 346 43 62 43 44 64 98 147 170 176 175 170 157 151 151 150 148 140 132 130 135 144 141 132 129 128 130 145 159 166 174 179 182 190 197 202 206 209 209 210 212 216 220 217 212 215 219 214 204 200 203 208 214 219 222 225 228 230 230 229 235 243 243
320 333 328 321 312 300 304 308 306 309 321 344 4 347 332 344 259 245 222 85 59 8 5 33 44 45 51 50 45 43 44 50 119 188 192 188 174 160 156 165 169 162 152 146 137 138 141 140 140 141 143 148 151 153 157 160 161 168 183 194 201 205 204 203 204 203 198 192 191 197 197 193 189 183 179 186 194 197 204 216 224 221 217 217 220 223 223
344 341 328 317 312 306 308 311 316 336 3 3 4 17 25 29 7 357 43 73 58 348 331 30 50 48 47 48 46 42 41 43 42 32 8 314 198 184 176 173 172 167 162 160 154 145 146 151 150 151 157 158 155 153 152 153 153 149 151 162 170 171 171 171 172 173 173 172 175 182 184 184 186 187 188 195 199 201 209 219 221 218 219 228 233 230 227
318 315 323 321 330 343 346 341 340 3 41 32 18 34 36 35 42 35 43 59 30 339 0 30 41 47 48 46 50 55 51 48 46 39 29 20 10 215 195 182 170 164 162 162 163 157 153 155 155 157 168 170 168 167 162 157 156 156 158 162 161 158 161 167 173 178 179 176 173 173 174 176 177 183 192 196 196 197 203 208 211 216 221 228 235 235 235
253 295 334 343 6 10 348 345 357 2 34 59 51 45 29 23 42 62 44 30 15 29 32 28 24 37 44 38 44 54 53 51 49 41 34 32 33 51 185 184 172 166 167 167 168 167 164 166 167 173 185 188 188 189 178 171 170 172 175 180 184 192 202 197 191 191 192 187 179 172 170 174 177 181 185 189 201 208 206 213 224 234 238 237 239 242 245
214 322 12 11 16 349 273 323 21 25 33 46 57 54 40 36 46 72 59 39 39 45 44 34 14 10 34 48 48 44 44 50 53 46 40 45 51 65 130 164 158 157 159 157 157 161 162 161 158 155 167 176 180 179 176 188 198 188 187 195 195 199 202 188 185 190 189 181 178 175 174 177 176 179 184 187 195 203 207 214 222 232 243 247 250 255 256
166 37 40 26 298 230 173 36 28 31 33 42 67 63 44 35 32 39 46 41 37 43 44 37 20 8 32 55 51 42 42 43 44 49 54 58 64 75 91 100 103 122 134 137 143 147 148 153 152 136 145 178 190 193 192 211 226 217 227 249 213 168 162 168 179 189 185 181 185 183 178 174 161 157 172 181 190 200 208 216 221 225 234 246 255 258 257
131 80 89 169 242 285 57 43 20 24 28 24 48 54 32 19 18 28 41 39 34 35 32 26 15 6 28 53 46 36 36 35 35 45 53 49 55 77 89 86 86 98 106 111 122 129 145 162 156 116 105 170 206 210 194 202 221 227 225 230 216 192 191 197 205 204 191 192 206 208 193 174 138 112 104 134 183 210 221 229 233 232 232 240 252 259 263
127 131 182 209 319 347 14 24 1 10 30 17 48 78 40 12 10 16 29 36 33 32 28 20 11 9 29 50 36 23 20 20 23 32 40 37 34 42 58 72 69 76 93 91 79 65 44 199 194 162 120 137 196 199 184 189 223 243 229 217 221 220 213 214 217 209 203 209 226 242 251 253 285 331 334 347 340 298 270 255 253 253 244 239 245 253 261
110 118 127 339 356 315 325 354 354 357 358 348 15 111 66 0 2 10 18 29 28 29 27 16 9 13 33 43 16 12 10 8 8 10 12 18 22 26 28 32 35 31 19 23 28 1 337 39 246 246 251 358 240 206 199 213 234 249 242 232 235 232 221 220 217 208 212 224 238 247 251 256 283 302 303 309 317 316 306 282 263 259 254 247 247 250 252
71 103 131 218 190 206 278 318 342 348 347 348 13 84 48 335 349 4 11 14 18 22 22 16 13 24 41 343 349 1 359 356 357 357 358 2 6 9 6 2 10 16 12 9 352 277 246 238 265 284 291 282 265 245 238 244 248 253 259 253 243 231 223 219 209 199 207 225 233 238 249 268 286 290 286 293 308 313 305 291 274 259 253 251 251 251 251
125 146 170 196 161 133 330 321 337 344 347 0 33 82 325 323 336 355 9 7 2 4 7 10 18 38 32 335 342 348 345 342 345 344 346 347 342 342 344 339 338 342 342 341 335 319 290 252 250 278 291 276 266 260 256 256 256 256 261 262 255 246 246 241 226 215 216 226 237 247 259 270 278 279 279 287 296 301 300 289 271 255 250 251 253 254 256
158 169 148 114 168 22 334 312 322 336 347 15 40 212 270 313 324 343 360 352 341 345 355 6 14 10 357 342 336 335 331 330 332 333 333 331 324 324 327 326 326 325 320 315 309 306 311 292 268 278 295 287 273 269 265 262 261 259 259 263 266 264 263 261 252 242 236 235 243 254 262 263 259 262 274 283 286 292 297 287 262 249 250 253 254 256 257
54 130 140 92 53 317 304 307 331 358 25 112 247 249 279 305 316 338 349 342 343 356 3 7 4 355 348 337 329 327 324 321 321 320 319 318 314 312 311 313 318 317 310 309 303 290 291 295 286 285 293 289 280 278 275 269 267 266 262 259 260 259 258 257 257 255 252 251 254 255 257 256 249 249 261 272 277 284 289 284 261 247 248 251 252 254 256
34 67 73 58 12 280 279 302 353 26 66 305 340 343 344 353 3 8 4 358 1 5 1 356 350 344 339 332 325 322 317 313 310 308 308 310 309 307 304 303 308 309 304 302 298 287 284 286 284 283 285 287 285 280 273 268 270 274 271 262 256 254 254 256 258 257 256 257 256 251 249 251 252 251 254 261 268 276 280 274 258 249 249 249 250 252 253
50 50 40 136 202 254 15 33 34 39 39 30 29 28 20 15 14 9 1 354 352 351 348 344 339 333 330 325 319 315 311 309 306 301 300 300 299 299 298 297 299 300 298 297 295 290 285 282 281 280 279 283 285 281 273 269 271 274 275 270 263 258 255 256 257 254 253 253 253 251 251 253 257 259 259 261 266 270 270 261 252 251 252 250 250 252 253
88 134 100 147 165 41 35 39 42 40 35 30 28 25 16 8 2 354 347 341 337 336 334 331 326 323 321 317 313 311 308 306 306 303 299 297 296 294 293 293 293 292 291 291 290 288 287 285 283 280 279 280 281 280 276 272 268 268 269 267 263 259 255 254 256 258 259 259 258 259 259 258 258 258 259 261 261 259 256 250 247 249 250 249 251 253 254
40 54 48 45 32 24 30 33 30 30 27 19 14 10 1 352 346 342 338 333 330 330 328 326 322 318 315 311 307 303 300 298 299 299 297 297 297 296 294 293 292 291 291 290 287 284 283 282 279 278 278 277 276 275 275 272 268 267 267 268 268 265 263 263 263 263 266 264 260 258 256 255 256 255 256 257 254 249 246 245 246 247 248 251 255 256 253
31 32 42 33 15 15 28 26 15 10 7 3 360 355 348 342 338 336 336 333 330 328 326 324 320 314 310 309 307 303 299 296 294 295 296 295 294 294 294 293 291 289 289 292 294 291 285 279 274 270 269 270 271 270 268 266 266 265 264 267 269 267 266 269 270 267 266 267 266 264 258 252 250 250 253 254 250 245 241 241 243 246 252 257 258 254 251
75 104 34 20 11 16 19 9 2 358 354 350 348 344 339 337 335 333 334 332 330 328 324 321 318 313 311 310 309 306 303 299 297 298 299 297 295 293 291 291 290 288 288 291 292 290 286 283 278 269 263 263 267 268 265 261 260 259 257 258 262 262 263 270 273 267 259 257 264 266 258 247 241 242 249 254 251 247 245 245 249 256 261 259 253 248 252
358 25 22 14 11 6 353 347 349 350 345 341 339 335 332 332 332 330 328 325 322 321 319 318 316 313 309 308 306 303 301 299 299 297 296 295 294 292 290 289 288 287 287 288 287 284 282 280 278 276 272 268 266 266 266 264 262 261 261 260 261 264 267 272 275 268 259 257 261 260 252 245 240 240 246 253 254 253 254 258 262 263 261 256 250 251 261
355 357 16 18 18 328 325 334 339 338 336 335 334 333 333 333 333 331 327 322 320 318 320 322 322 318 315 312 307 302 299 299 300 298 296 295 294 290 288 288 286 283 281 281 282 283 282 279 276 274 273 271 269 267 266 266 265 265 266 265 265 267 270 273 272 268 263 263 264 258 254 255 255 249 246 249 252 254 257 262 262 258 255 255 253 258 265
272 328 356 2 349 300 313 326 329 330 332 332 332 333 331 328 330 331 329 328 328 328 329 332 334 332 328 322 317 311 306 304 303 301 298 295 291 286 282 281 282 281 279 278 278 277 279 280 276 270 267 268 268 268 267 267 267 266 267 269 268 266 264 264 265 266 264 262 261 259 257 257 257 253 248 247 248 251 254 256 253 250 255 259 253 253 259
296 335 345 342 333 323 323 326 328 331 333 331 327 327 327 327 331 333 333 334 335 335 335 335 333 328 321 314 312 311 306 301 298 296 291 285 284 284 282 281 281 282 282 281 279 276 277 278 276 271 268 266 266 267 267 266 265 264 264 264 263 260 257 255 257 260 261 258 257 257 255 252 251 251 251 250 249 247 246 247 247 248 257 259 247 241 244
338 338 333 329 327 326 325 328 332 335 336 337 337 337 337 336 336 339 343 344 340 337 335 330 322 317 314 311 309 306 301 295 291 287 283 280 280 282 282 280 277 275 274 273 271 269 270 271 270 268 266 264 263 262 260 258 257 256 255 255 256 255 254 254 255 257 257 255 254 254 253 253 253 253 254 254 254 249 243 242 245 247 247 242 233 225 219
352 341 330 323 324 330 333 334 334 334 337 347 354 351 345 342 343 348 353 349 341 338 336 331 327 325 323 319 315 311 306 301 298 295 291 288 285 283 281 277 271 267 265 264 263 262 262 262 262 261 260 259 259 257 254 252 251 248 246 247 249 250 250 252 254 255 253 251 251 250 250 250 252 254 257 257 254 248 242 236 229 217 206 201 200 197 192
352 346 341 333 331 339 343 338 336 343 354 1 359 353 351 351 349 348 346 344 344 343 341 340 339 336 331 326 322 318 313 310 308 307 303 299 295 291 287 283 278 273 268 264 262 261 261 260 260 260 259 258 259 259 257 254 252 249 246 243 242 242 242 244 247 249 248 246 246 245 244 246 248 250 251 247 241 237 237 231 213 192 179 174 173 176 177
354 355 353 342 333 335 339 340 349 7 12 3 360 2 359 355 353 352 351 351 351 350 350 351 349 342 335 331 326 322 318 314 311 309 307 305 305 304 299 295 291 286 278 271 266 263 262 262 261 260 259 259 260 259 259 257 254 252 248 245 242 241 240 239 239 240 241 243 243 242 242 243 243 242 239 232 225 222 222 213 195 179 171 168 167 167 170
342 345 342 336 332 337 344 354 11 22 12 2 6 11 4 359 1 0 356 353 351 352 356 359 356 351 344 337 331 326 322 318 316 315 312 311 314 315 311 307 304 299 291 282 276 271 268 268 267 266 266 265 263 260 259 258 255 253 249 245 240 238 238 238 236 235 237 239 238 237 237 236 234 234 230 222 216 212 203 191 181 172 168 166 163 162 165
332 337 337 338 345 354 8 21 30 31 23 12 10 10 5 2 0 355 349 347 345 348 356 1 1 358 354 347 340 335 328 323 326 326 318 315 317 317 313 313 316 319 310 292 283 276 272 272 274 276 276 276 273 267 262 258 255 253 250 245 239 233 231 230 230 231 233 233 230 229 232 232 229 226 219 209 202 195 185 179 175 171 165 162 163 166 170
330 337 345 358 9 19 29 37 41 40 28 10 1 3 4 360 353 346 345 346 346 348 359 6 8 5 2 359 356 353 348 344 344 338 327 324 332 347 6 20 30 39 42 32 2 321 294 285 284 283 281 279 275 270 264 259 256 253 247 240 235 231 227 225 225 227 229 229 227 227 228 227 220 213 204 193 184 177 173 170 169 166 162 162 166 172 176
335 342 356 12 24 34 41 41 38 35 19 358 355 0 358 352 347 345 351 358 1 1 6 11 13 10 7 9 10 9 10 12 7 354 350 15 52 66 68 65 59 55 53 53 52 44 31 17 352 320 301 290 282 276 269 260 253 247 236 225 221 221 220 219 219 221 223 226 225 224 222 217 206 196 187 177 169 166 164 161 159 159 160 161 163 164 165
331 349 12 25 35 48 51 42 38 28 1 353 1 3 354 350 353 3 14 18 16 12 11 15 16 14 13 16 20 22 26 32 32 30 37 54 67 71 69 64 59 56 56 58 57 51 44 38 30 17 2 330 307 308 315 277 225 214 206 204 206 208 208 209 211 215 218 219 217 213 208 198 185 176 169 164 162 160 158 157 157 158 159 157 153 151 150
320 345 31 76 76 70 60 49 48 14 348 356 9 5 355 360 12 24 26 23 19 14 15 18 18 18 20 23 27 33 40 43 42 45 53 62 69 69 67 66 65 65 67 69 65 57 52 50 50 53 58 59 50 36 47 85 138 161 173 183 192 196 197 199 202 206 205 202 197 190 179 169 163 162 160 158 156 155 154 156 158 160 161 161 157 150 148
259 148 139 118 97 90 76 42 29 354 344 354 6 359 353 1 16 25 24 21 17 13 14 20 22 23 26 28 31 38 46 49 50 54 61 68 69 67 68 72 74 75 77 76 68 59 56 57 59 62 64 66 67 68 75 91 110 127 147 164 174 179 181 183 184 184 181 174 166 158 153 152 153 155 153 151 151 152 153 155 158 161 165 170 172 165 161
167 147 138 126 111 104 64 17 8 347 337 342 353 350 346 351 6 17 18 16 12 8 10 20 27 26 26 28 32 37 45 51 53 56 60 64 66 67 71 75 74 74 79 81 72 61 59 62 65 68 68 67 67 69 74 82 89 95 103 114 125 134 140 143 143 144 143 142 142 143 145 146 147 147 146 147 151 154 155 156 161 165 170 175 176 173 172
158 150 148 148 145 118 22 10 359 347 342 343 347 346 343 346 356 6 9 10 8 5 7 17 26 26 25 26 30 35 43 52 56 56 58 62 66 71 75 74 70 69 73 75 71 65 63 66 69 72 72 70 70 74 79 84 87 89 93 98 103 109 113 116 120 125 129 133 138 140 141 141 143 144 145 149 153 156 158 161 162 161 163 169 171 170 171
167 173 173 161 146 108 17 358 345 350 360 360 352 345 344 347 351 355 1 7 5 3 8 18 24 25 25 25 26 30 38 49 58 61 61 63 67 70 70 68 65 63 63 65 68 72 70 68 70 74 76 77 79 84 89 92 93 95 99 103 107 110 114 118 121 125 129 134 137 139 140 143 146 147 148 153 156 157 158 158 153 146 147 156 164 171 177
189 195 192 179 155 149 201 328 342 354 0 356 347 340 337 339 343 345 356 10 9 4 11 23 27 26 28 32 29 26 29 38 53 64 67 67 68 70 71 69 67 65 64 66 73 80 79 74 73 74 76 82 88 92 95 97 99 99 102 106 110 113 117 120 123 126 130 134 137 140 143 146 147 146 148 150 151 151 150 150 149 151 156 162 170 180 190
198 197 197 197 175 179 253 277 336 9 355 335 332 334 333 337 344 348 356 12 17 11 16 28 31 28 30 37 38 30 26 30 43 58 66 69 71 72 72 72 70 68 67 69 74 80 84 82 77 74 75 81 90 97 100 101 103 105 107 110 112 115 117 120 124 127 130 134 137 140 143 144 145 146 148 149 150 152 155 157 161 170 177 179 183 194 203
202 204 207 208 211 250 269 256 264 354 356 336 328 332 333 339 349 355 357 8 17 16 23 35 36 31 31 38 44 41 36 36 42 51 59 64 67 68 67 66 65 65 66 67 70 75 81 82 78 78 81 84 90 98 105 107 106 108 111 113 115 118 120 121 123 125 130 135 140 143 146 149 152 153 155 159 162 165 168 172 178 184 190 194 201 210 218
205 215 221 217 227 255 251 229 250 311 349 352 328 327 331 341 350 352 355 3 8 9 27 48 45 36 34 38 42 45 47 47 47 50 54 57 61 65 66 66 65 65 65 65 64 65 69 71 73 77 85 89 92 97 104 109 111 111 112 114 115 117 119 121 124 128 134 141 147 150 153 159 164 166 169 173 175 175 177 182 188 194 200 206 211 216 220
208 219 225 220 230 250 240 216 225 253 262 329 326 322 328 340 348 348 355 6 7 7 28 60 60 47 40 40 42 47 52 52 52 54 55 57 60 62 63 65 66 65 66 66 65 63 62 64 68 73 82 93 99 101 102 105 109 113 116 119 121 123 125 127 131 137 143 148 153 157 161 166 171 175 178 181 181 183 187 192 196 201 208 215 221 224 225
214 220 224 222 231 244 244 238 231 222 232 291 315 314 325 339 347 355 13 25 28 28 38 63 70 57 44 39 39 43 47 50 55 59 61 63 64 64 62 61 62 62 62 64 66 66 65 65 67 69 75 86 99 111 115 114 112 113 117 122 126 131 135 138 141 146 151 154 157 160 165 170 175 179 182 186 189 194 199 203 206 211 217 225 233 240 243
229 225 224 226 232 235 240 247 238 215 213 275 301 293 312 335 351 23 47 49 49 46 47 57 63 58 49 41 37 38 43 50 55 59 61 62 63 63 61 60 59 59 58 60 63 65 67 68 69 71 73 75 83 98 115 126 134 136 135 134 136 138 142 145 147 149 153 158 162 166 170 174 179 184 189 196 203 208 210 213 218 223 230 237 240 239 233
239 231 227 230 233 234 237 241 227 203 188 219 266 274 299 328 356 56 67 64 59 53 52 53 53 51 50 43 36 36 41 47 51 54 57 59 61 63 63 63 61 58 57 58 61 62 63 65 67 70 73 75 78 83 91 106 127 141 144 145 146 146 144 146 149 152 155 160 167 172 177 183 189 196 200 203 208 213 217 223 229 231 230 227 221 212 204
237 234 233 234 233 227 225 225 218 208 199 212 232 250 277 304 352 69 67 63 54 48 51 56 55 53 55 52 46 45 45 45 49 52 54 56 60 64 64 64 63 61 57 56 58 59 59 58 60 63 66 69 74 79 84 90 101 115 132 145 151 150 150 152 153 155 159 164 171 179 188 194 198 200 201 200 203 211 222 232 230 215 202 197 193 187 189
239 239 240 237 226 216 215 223 229 232 225 204 213 239 268 276 217 81 62 52 39 30 32 38 45 50 55 60 64 64 58 54 55 58 56 54 57 60 62 62 63 62 60 58 58 57 55 55 56 57 57 59 63 70 77 85 92 97 110 132 148 154 158 162 164 166 169 173 176 181 187 188 183 176 171 170 175 183 193 191 173 160 161 171 176 172 168
242 243 245 242 231 222 220 227 237 242 230 206 213 238 261 258 217 128 77 62 29 7 7 11 21 34 44 55 67 73 73 68 67 69 68 65 62 62 64 65 63 61 60 59 57 54 52 53 55 56 54 54 57 59 61 65 71 78 87 105 124 135 144 155 166 173 175 173 167 162 157 142 122 120 121 122 125 126 125 121 118 116 121 133 148 163 164
240 238 240 244 242 232 223 225 238 244 232 216 221 233 243 239 216 184 153 149 192 261 324 342 352 4 19 38 60 74 75 74 73 74 76 76 72 68 69 70 69 67 66 63 58 54 52 51 53 54 53 51 52 54 53 51 50 51 57 72 90 105 118 130 138 135 124 114 111 113 109 99 93 96 102 110 114 111 105 104 103 94 78 63 51 44 58
243 238 237 245 250 238 221 219 232 243 239 230 228 227 225 220 210 196 186 186 199 209 214 244 291 312 339 11 47 70 75 76 76 74 72 70 67 64 63 64 66 70 71 69 66 63 60 55 53 52 51 49 49 50 50 51 52 50 48 48 54 69 88 99 103 107 113 117 117 114 107 98 97 100 104 109 112 108 103 102 101 89 73 61 53 48 45
246 241 238 244 251 242 222 217 225 236 239 236 231 224 216 203 195 199 204 207 209 209 212 219 238 257 281 331 40 74 81 81 80 77 72 68 63 59 58 59 60 64 66 66 65 66 68 65 61 58 56 54 53 50 47 47 48 49 48 46 47 57 75 85 89 95 105 113 115 112 107 101 98 99 98 98 104 106 101 95 91 85 74 64 57 50 43